(288641) = 2004 PD36

Discovered at Campo Imperatore on 2004-08-09 by CINEOS.

Orbit

Orbit type: Main Belt

Note: WebGL enabled browser required.

epoch2023-09-13.0
epoch JD2460200.5
perihelion date2022-08-22.09763
perihelion JD2459813.59763
argument of perihelion (°)332.93078
ascending node (°)343.86924
inclination (°)1.09472
eccentricity0.1985364
perihelion distance (AU)1.8892961
Tisserand w.r.t. Jupiter3.5
ΔV w.r.t. Earth (km/sec)8.6
semimajor axis (AU)2.3573075
mean anomaly (°)105.36124
mean daily motion (°/day)0.27232000
aphelion distance (AU)2.825
period (years)3.62
P-vector [x]0.72899186
P-vector [y]-0.62452798
P-vector [z]-0.28024215
Q-vector [x]0.68450178
Q-vector [y]0.66190537
Q-vector [z]0.30551365
absolute magnitude17.66
phase slope0.15
uncertainty0
referenceMPEC 2023-Y46
observations used338
oppositions14
arc length (days)9573
first opposition used1997
last opposition used2023
residual rms (arc-secs)0.70
perturbers coarse indicatorM-v
perturbers precise indicator003Ek
first observation date used1997-09-29.0
last observation date used2023-12-15.0
computer nameMPCLINUX
JD of orbit computation2456789.184349
perihelion JD uncertainty (days)1.1726E-04
argument of perihelion uncertainty (°)2.8589E-04
ascending node uncertainty (°)2.8475E-04
inclination uncertainty (°)9.8502E-06
eccentricity uncertainty 7.2763E-08
perihelion distance uncertainty (AU)1.7905E-07
Minimum Orbit Intersection Distances (in AU)
for orbit epoch: 2460200.5, reference: E2023-Y46
Mercury1.46384
Venus1.16216
Earth0.87532
Mars0.49787
Jupiter2.45749
Saturn6.31697
Uranus15.6618
Neptune27.4116

Observations

352 total observations over interval: 1997 09 29.42950 – 2023 12 15.349653
These data are available for download (format description).

Date (UT) J2000 RA J2000 Dec Magn Location Ref
1997 09 29.42950 02 08 16.46 +14 14 14.5 20.4 V 691 – Steward Observatory, Kitt Peak-Spacewatch MPS 175543
1997 09 29.44785 02 08 15.62 +14 14 11.0 20.3 V 691 – Steward Observatory, Kitt Peak-Spacewatch MPS 175543
1997 09 29.46591 02 08 14.77 +14 14 08.4 20.7 V 691 – Steward Observatory, Kitt Peak-Spacewatch MPS 175543
2003 03 30.22932 11 02 48.15 +05 49 20.9 21.0 R 695 – Kitt Peak MPS 175543
2003 03 30.32694 11 02 43.33 +05 49 47.9   695 – Kitt Peak MPS 175543
2004 08 09.02758 22 46 40.08 -08 27 48.5 19.2 R 599 – Campo Imperatore-CINEOS MPS 111218
2004 08 09.03811 22 46 39.64 -08 27 49.9 19.6 R 599 – Campo Imperatore-CINEOS MPS 111218
2004 08 09.04828 22 46 39.33 -08 27 51.5 19.0 R 599 – Campo Imperatore-CINEOS MPS 111218
2004 08 09.05860 22 46 38.88 -08 27 53.4 19.4 R 599 – Campo Imperatore-CINEOS MPS 111218
2004 08 10.22762 22 45 57.53 -08 31 03.2 19.7   704 – Lincoln Laboratory ETS, New Mexico MPS 111218
2004 08 10.23778 22 45 57.16 -08 31 05.9 19.4   704 – Lincoln Laboratory ETS, New Mexico MPS 111218
2004 08 10.24786 22 45 56.73 -08 31 09.7 20.1   704 – Lincoln Laboratory ETS, New Mexico MPS 111218
2004 08 10.25811 22 45 56.39 -08 31 09.7 19.9   704 – Lincoln Laboratory ETS, New Mexico MPS 111218
2004 08 27.30054 22 32 47.21 -09 32 48.3 18.1 R 703 – Catalina Sky Survey MPS 112956
2004 08 27.31189 22 32 46.58 -09 32 50.7 18.7 R 703 – Catalina Sky Survey MPS 112956
2004 08 27.32322 22 32 45.92 -09 32 54.8 18.7 R 703 – Catalina Sky Survey MPS 112956
2004 08 27.33456 22 32 45.26 -09 32 56.3 18.4 R 703 – Catalina Sky Survey MPS 112956
2004 09 07.18340 22 23 43.05 -10 13 52.2 19.0   704 – Lincoln Laboratory ETS, New Mexico MPS 112746
2004 09 07.19463 22 23 42.49 -10 13 53.4 19.3   704 – Lincoln Laboratory ETS, New Mexico MPS 112746
2004 09 07.20592 22 23 41.94 -10 13 55.9 19.6   704 – Lincoln Laboratory ETS, New Mexico MPS 112746
2004 09 07.21720 22 23 41.38 -10 13 58.3 19.7   704 – Lincoln Laboratory ETS, New Mexico MPS 112746
2004 09 07.22847 22 23 40.80 -10 14 00.9 19.9   704 – Lincoln Laboratory ETS, New Mexico MPS 112746
2004 09 09.17760 22 22 11.74 -10 20 26.9 19.5   704 – Lincoln Laboratory ETS, New Mexico MPS 112746
2004 09 09.18885 22 22 11.27 -10 20 29.9 19.5   704 – Lincoln Laboratory ETS, New Mexico MPS 112746
2004 09 09.21180 22 22 10.16 -10 20 34.3 19.6   704 – Lincoln Laboratory ETS, New Mexico MPS 112746
2004 09 09.22295 22 22 09.57 -10 20 35.7 19.8   704 – Lincoln Laboratory ETS, New Mexico MPS 112746
2004 09 09.28593 22 22 06.58 -10 20 49.1 19.6 R 705 – Apache Point MPS 112956
2004 09 09.30862 22 22 05.50 -10 20 53.0 19.4 R 705 – Apache Point MPS 112956
2004 09 09.33125 22 22 04.44 -10 20 57.5 19.5 R 705 – Apache Point MPS 112956
2004 09 13.13305 22 19 24.41 -10 32 14.8 19.6 V 691 – Steward Observatory, Kitt Peak-Spacewatch MPS 112956
2004 09 13.16102 22 19 23.20 -10 32 19.5 19.7 V 691 – Steward Observatory, Kitt Peak-Spacewatch MPS 112956
2004 09 13.18891 22 19 22.01 -10 32 24.2 19.5 V 691 – Steward Observatory, Kitt Peak-Spacewatch MPS 112956
2004 09 16.15608 22 17 30.87 -10 39 54.2 19.8 V 691 – Steward Observatory, Kitt Peak-Spacewatch MPS 112956
2004 09 16.19023 22 17 29.55 -10 39 59.0 19.5 V 691 – Steward Observatory, Kitt Peak-Spacewatch MPS 112956
2004 09 16.21905 22 17 28.46 -10 40 03.1 19.6 V 691 – Steward Observatory, Kitt Peak-Spacewatch MPS 112956
2004 09 17.21336 22 16 54.36 -10 42 16.1 19.4   704 – Lincoln Laboratory ETS, New Mexico MPS 112956
2004 09 17.22509 22 16 53.95 -10 42 16.1 20.3   704 – Lincoln Laboratory ETS, New Mexico MPS 112956
2004 09 17.24860 22 16 53.01 -10 42 20.3 19.8   704 – Lincoln Laboratory ETS, New Mexico MPS 112956
2004 09 17.26033 22 16 52.72 -10 42 22.4 20.1   704 – Lincoln Laboratory ETS, New Mexico MPS 112956
2004 09 22.32655 22 14 25.78 -10 51 14.6 19.9 V 691 – Steward Observatory, Kitt Peak-Spacewatch MPS 114381
2004 09 22.35416 22 14 25.03 -10 51 16.6 19.9 V 691 – Steward Observatory, Kitt Peak-Spacewatch MPS 114381
2004 09 22.38266 22 14 24.27 -10 51 18.4 20.5 V 691 – Steward Observatory, Kitt Peak-Spacewatch MPS 114381
2006 01 07.33634 08 04 49.76 +21 39 47.8 21.1 V G96 – Mt. Lemmon Survey MPS 175543
2006 01 07.34330 08 04 49.22 +21 39 48.7 22.3 V G96 – Mt. Lemmon Survey MPS 175543
2006 01 07.35012 08 04 48.79 +21 39 50.2 21.5 V G96 – Mt. Lemmon Survey MPS 175543
2006 01 07.35697 08 04 48.36 +21 39 51.5 21.3 V G96 – Mt. Lemmon Survey MPS 175543
2007 04 22.31273 13 45 26.89 -12 20 44.5 20.1 V G96 – Mt. Lemmon Survey MPS 208057
2007 04 22.31925 13 45 26.49 -12 20 42.4 20.3 V G96 – Mt. Lemmon Survey MPS 208057
2007 04 22.33244 13 45 25.66 -12 20 38.2 20.2 V G96 – Mt. Lemmon Survey MPS 208057
2007 05 10.31001 13 28 36.40 -10 48 56.0 21.2 V G96 – Mt. Lemmon Survey MPS 208901
2007 05 10.31625 13 28 36.08 -10 48 54.4 20.9 V G96 – Mt. Lemmon Survey MPS 208901
2007 05 10.32249 13 28 35.83 -10 48 52.3 21.2 V G96 – Mt. Lemmon Survey MPS 208901
2007 05 10.32878 13 28 35.47 -10 48 50.4 20.9 V G96 – Mt. Lemmon Survey MPS 208901
2008 10 20.31061 03 33 05.91 +20 49 03.3 20.4 V 691 – Steward Observatory, Kitt Peak-Spacewatch MPS 260573
2008 10 20.32827 03 33 05.03 +20 49 01.2 20.4 V 691 – Steward Observatory, Kitt Peak-Spacewatch MPS 260573
2008 10 20.34592 03 33 04.09 +20 48 58.9 20.3 V 691 – Steward Observatory, Kitt Peak-Spacewatch MPS 260573
2008 10 24.27998 03 29 39.06 +20 39 33.9 20.4 V 691 – Steward Observatory, Kitt Peak-Spacewatch MPS 261479
2008 10 24.30114 03 29 37.84 +20 39 30.7 20.4 V 691 – Steward Observatory, Kitt Peak-Spacewatch MPS 261479
2008 10 24.31883 03 29 36.81 +20 39 27.7 20.4 V 691 – Steward Observatory, Kitt Peak-Spacewatch MPS 261479
2008 10 28.26941 03 25 49.02 +20 28 08.7 20.3 V 691 – Steward Observatory, Kitt Peak-Spacewatch MPS 261479
2008 10 28.28713 03 25 47.92 +20 28 05.8 20.3 V 691 – Steward Observatory, Kitt Peak-Spacewatch MPS 261479
2008 10 28.30484 03 25 46.81 +20 28 02.3 20.4 V 691 – Steward Observatory, Kitt Peak-Spacewatch MPS 261479
2014 03 06.31418 12 21 52.33 -02 49 59.0   691 – Steward Observatory, Kitt Peak-Spacewatch MPS 505230
2014 03 06.33187 12 21 51.59 -02 49 54.4   691 – Steward Observatory, Kitt Peak-Spacewatch MPS 505230
2014 03 06.34955 12 21 50.63 -02 49 49.0   691 – Steward Observatory, Kitt Peak-Spacewatch MPS 505230
2014 03 06.45468 12 21 45.701 -02 49 19.31 21.3 w F51 – Pan-STARRS 1, Haleakala MPS 505230
2014 03 06.45864 12 21 45.513 -02 49 18.06 21.6 w F51 – Pan-STARRS 1, Haleakala MPS 505230
2014 03 06.46660 12 21 45.115 -02 49 15.88 21.3 w F51 – Pan-STARRS 1, Haleakala MPS 505230
2014 03 06.47056 12 21 44.920 -02 49 14.77 21.2 w F51 – Pan-STARRS 1, Haleakala MPS 505230
2014 04 25.27853 11 39 59.51 +01 23 53.2 21.2 V G96 – Mt. Lemmon Survey MPS 512283
2014 04 25.28377 11 39 59.41 +01 23 54.7 21.7 V G96 – Mt. Lemmon Survey MPS 512283
2014 04 25.28898 11 39 59.23 +01 23 55.8 20.7 V G96 – Mt. Lemmon Survey MPS 512284
2014 04 25.29418 11 39 59.05 +01 23 56.4 21.5 V G96 – Mt. Lemmon Survey MPS 512284
2015 07 23.56069 00 40 21.614 +04 14 49.98 20.8 w F51 – Pan-STARRS 1, Haleakala MPS 617408
2015 07 23.57264 00 40 22.213 +04 14 54.53 20.9 w F51 – Pan-STARRS 1, Haleakala MPS 617408
2015 07 23.59662 00 40 23.411 +04 15 03.58 20.7 w F51 – Pan-STARRS 1, Haleakala MPS 617408
2015 08 16.82870 00 53 02.49 +05 54 30.7 20.8 R D29 – Purple Mountain Observatory, XuYi Station MPS 623072
2015 08 16.84546 00 53 02.61 +05 54 31.6 21.3 R D29 – Purple Mountain Observatory, XuYi Station MPS 623072
2015 09 06.68970 00 48 25.74 +05 46 05.1 20.3 R D29 – Purple Mountain Observatory, XuYi Station MPS 626385
2015 09 06.70502 00 48 25.12 +05 46 02.1 20.2 R D29 – Purple Mountain Observatory, XuYi Station MPS 626385
2015 09 08.71342 00 47 13.84 +05 40 36.3 20.1 R D29 – Purple Mountain Observatory, XuYi Station MPS 626385
2015 09 08.72930 00 47 13.15 +05 40 33.8 19.9 R D29 – Purple Mountain Observatory, XuYi Station MPS 626385
2015 09 08.74517 00 47 12.53 +05 40 30.7 19.6 R D29 – Purple Mountain Observatory, XuYi Station MPS 626385
2015 09 09.75648 00 46 33.86 +05 37 29.3 19.6 R D29 – Purple Mountain Observatory, XuYi Station MPS 626385
2015 09 09.77236 00 46 33.24 +05 37 26.2 20.2 R D29 – Purple Mountain Observatory, XuYi Station MPS 626385
